Miscellaneous Local Product
Issued by NWS Hastings, NE

Home | Current Version | Previous Version | Text Only | Print | Product List | Glossary On
Versions: 1 2 3 4 5 6 7 8 9 10 11 12 13 14 15 16 17 18 19 20 21 22 23 24 25 26 27 28 29 30 31 32 33 34 35 36 37 38 39 40 41 42 43 44 45 46 47 48 49 50
312
AXUS43 KGID 061002
MISGRI

GID CWA HOURLY WEATHER ROUNDUP
NATIONAL WEATHER SERVICE HASTINGS NE
400 AM CST TUE DEC 06 2016

NOTE: "FAIR" INDICATES FEW OR NO CLOUDS BELOW 12,000 FEET WITH NO
SIGNIFICANT WEATHER AND/OR OBSTRUCTIONS TO VISIBILITY.

...SOUTH CENTRAL NEBRASKA...

CITY           SKY/WX    TMP DP  RH WIND       PRES   REMARKS
GRAND ISLAND   CLEAR     22  13  68 NW13      29.98S WCI  10
HASTINGS       CLEAR     23  13  65 NW10      29.99R WCI  12
KEARNEY        PTCLDY    21  10  63 NW7       29.98S WCI  13
ORD            CLEAR     19   9  65 NW16      29.97R WCI   4
YORK           CLEAR     23  14  68 NW15      29.98R WCI  10
AURORA         CLEAR     24  12  62 NW16      29.98R WCI  10
LEXINGTON      PTCLDY    23  14  68 NW13      29.99S WCI  12
HOLDREGE       CLEAR     20  14  77 W6        29.98S WCI  12
HEBRON         CLOUDY    28  16  59 N9        30.00R WCI  19

...NEBRASKA PANHANDLE...

CITY           SKY/WX    TMP DP  RH WIND       PRES   REMARKS
CHADRON        CLEAR     12   3  67 W8        30.00F WCI   0
ALLIANCE       CLEAR      9   2  73 W9        29.95S WCI  -4
SCOTTSBLUFF    CLEAR      6   1  80 NW5       29.98F WCI  -3
SIDNEY         CLEAR      7   1  76 W7        29.97F WCI  -5

...WESTERN AND NORTH CENTRAL NEBRASKA...

CITY           SKY/WX    TMP DP  RH WIND       PRES   REMARKS
VALENTINE      CLEAR     15   5  64 W14       29.96R WCI   0
AINSWORTH      CLEAR     18   8  63 W15G21    29.94S WCI   4
ONEILL         CLEAR     19  10  69 W14       29.93S WCI   5
BROKEN BOW     CLEAR     19  13  77 NW9       29.97R WCI   8
IMPERIAL       CLEAR     18   6  59 NW16      30.00F WCI   3
NORTH PLATTE   CLEAR     18  10  71 W9        30.00R WCI   7
MCCOOK         PTCLDY    21  11  65 W13       30.02S WCI   9

...EASTERN NEBRASKA...

CITY           SKY/WX    TMP DP  RH WIND       PRES   REMARKS
NORFOLK        PTCLDY    20   8  60 NW15      29.93S WCI   6
SO SIOUX CITY  MOCLDY    23  11  60 NW23G29   29.93R WCI   7
TEKAMAH        CLOUDY    27  18  69 NW13      29.95R WCI  16
COLUMBUS       CLEAR     23   9  54 NW15      29.96F WCI  10
ALBION         PTCLDY    21  10  63 NW16G23   29.94F WCI   7
OMAHA EPPLEY   CLOUDY    29  18  63 NW13      29.93F WCI  19
OFFUTT AFB     CLOUDY    29  20  68 NW14G21   29.93S WCI  19
MILLARD        CLOUDY    31  19  60 NW13G21   29.94R WCI  21
LINCOLN        CLOUDY    30  15  53 NW24      29.96S WCI  16
NEBRASKA CITY  CLOUDY    31  17  57 NW18      29.93R WCI  19
BEATRICE       MOCLDY    30  18  60 N20       29.95S WCI  18
FALLS CITY     CLOUDY    32  23  69 N13G23    29.92R WCI  22

...NORTHERN KANSAS...

CITY           SKY/WX    TMP DP  RH WIND       PRES   REMARKS
GOODLAND       CLOUDY    12   6  77 NW12      30.01R WCI  -2
HILL CITY      PTCLDY    23  13  65 N9        30.03R WCI  13
NORTON         MOSUNNY   21   9  58 NW16      29.99F WCI   7
PHILLIPSBURG   CLEAR     21  16  79 W8        30.02R WCI  12
SMITH CENTER   CLEAR     19  16  86 NW6       30.02R WCI  11
BELOIT         CLEAR     27  18  69 NW10      30.00R WCI  17
HAYS           CLEAR     25  18  74 N9        30.02R WCI  15
RUSSELL        CLEAR     25  17  72 N12       29.99R WCI  14
CONCORDIA      PTCLDY    29  20  69 N12       29.99R WCI  19
SALINA         CLEAR     31  22  69 N9        29.99R WCI  23
TOPEKA         CLOUDY    36  26  67 NW15G24   29.92R WCI  27



USA.gov is the U.S. government's official web portal to all federal, state and local government web resources and services.